Location: Dodge City Community College Clyde Tombaugh Astronomy Center
(37.7756°N, 100.0412°W)
Time: 20:57:43
(UTC+00:00)

N. Korean satellite - Pass Details

Date: 08 December 2022
Orbit: 407 x 442 km, 97.3° (Epoch: 04 February)

Event Time Altitude Azimuth Distance (km) Brightness Sun altitude
Rises 23:47:53 0° 192° (SSW) 2,448 10.7 -5.6°
Reaches altitude 10° 23:50:07 10° 205° (SSW) 1,591 10.0 -6.0°
Maximum altitude 23:53:02 26° 264° (W) 945 9.1 -6.5°
Drops below altitude 10° 23:56:00 10° 322° (NW) 1,622 9.4 -7.0°
Sets 23:58:18 0° 336° (NNW) 2,508 10.2 -7.5°
